星链-31502 (STARLINK-31502 )

导读

STARLINK-31502是美国太空探索技术公司(SpaceX)星链互联网卫星星座的一员,于2024年3月24日发射。星链项目旨在构建全球卫星互联网组网,该卫星入轨后,为提升星座覆盖能力与网络服务容量,助力实现全球偏远地区、海上与空中的互联网接入,目前已在轨稳定运行近两年。

基本信息
目录编号:
59301
目录名称:
STARLINK-31502
国际标识:
2024-056F
轨道中心:
EARTH
卫星名称:
星链-31502
卫星全名:
星链-31502 (STARLINK-31502 )
卫星状态:
在轨 (已飞行901 天)
发射日期:
2024-03-24 UTC
国别 :
美国 (US)
星等 :
--
该卫星已列入 空间交会检测服务 Space Conjunction Data Service (SCDS) ,当前飞行风险评估等级: 高风险
轨道信息
数据来源 国际轨道数据
星历时间: 2026-09-11T18:10:44+0800
11小时前
查看轨道信息
半长轴: 6861.22km
偏心率: 0.0001311
轨道倾角: 43.001°
近地点辐角 277.481°
升交点赤经 254.539°
平近点角 82.589°
近地点: 482.183km
远地点: 483.983km
周期: 94.267分钟
每日圈数: 15.27569
详细信息
固有亮度:
5
最大亮度:
0.3
卫星平台:
Starlink v2.0 mini
覆盖范围:
全球
运营商:
太空探索技术公司
运营商所在国:
美国
制造商(研发单位):
太空探索技术公司
制造商所在国:
美国
使用方式:
暂无
卫星简介
星链(Starlink)计划是由太空探索技术公司(SpaceX)提出的一个巨型低轨卫星互联网星座项目,计划在2019年至2024年间在太空搭建由约1.2万颗卫星组成的“星链”网络,其中1584颗将部署在地球上空550千米处的近地轨道,并从2020年开始工作。该卫星仍在工作。
2D轨道图
3D轨道图
轨道高度分析图
轨道倾角分析图
轨道综合分析图
查看轨道综合分析图
交会数据列表
事件ID 空间交会对象 最接近时刻(TCA) 交会距离 交会风险概率(CRP) 交会风险指数(CRI) 操作
CDM_260914-090201-469905-930121
2026-09-14T
09:02:24+0000
2.272 km
极远距离
1.334681E-6 低风险 0.38
与全量物体交会距离演化趋势
与全量物体交会风险概率演化趋势